Ortonville, MN

6:22 PM CST on February 24, 2017 (GMT -0600)
Ortonville Municipal-Martinson

Weather History for KVVV - January, 2014

Change the Weather History Date:

Saturday, January 4, 2014

  Actual Average (KAQP) Record (KAQP)
Temperature  
Mean Temperature 10 °F -  
Max Temperature 24 °F 20 °F 50 °F (2012)
Min Temperature -5 °F 4 °F -18 °F (1999)
Degree Days  
Heating Degree Days 56    
Moisture  
Dew Point -2 °F    
Average Humidity 70    
Maximum Humidity 86    
Minimum Humidity 60    
Precipitation  
Precipitation 0.00 in - - ()
Sea Level Pressure  
Sea Level Pressure 30.02 in    
Wind  
Wind Speed 21 mph (NNW)    
Max Wind Speed 34 mph    
Max Gust Speed 44 mph    
Visibility 9 miles    
Events Snow    
Averages and records for this station are not official NWS values.
T = Trace of Precipitation, MM = Missing Value Source: NWS Daily Summary

Daily Weather History Graph

Daily Weather History Graph

Search for Another Location

Airport or City:

Trip Planner

Search our weather history database for the weather conditions in past years. The results will help you decide how hot, cold, wet, or windy it might be!

Date:

Astronomy

Jan. 04, 2014 Rise Set
Actual Time 8:05 AM CST 4:56 PM CST
Civil Twilight 7:31 AM CST 5:30 PM CST
Nautical Twilight 6:54 AM CST 6:07 PM CST
Astronomical Twilight 6:18 AM CST 6:43 PM CST
Moon 9:59 AM CST (1/4) 9:30 PM CST (1/4)
Length of Visible Light 9h 59m
Length of Day
8h 51m
Waxing Crescent, 15% of the Moon is Illuminated
Jan 4
Waxing Crescent
Jan 7
First Quarter
Jan 15
Full
Jan 23
Last Quarter
Jan 30
New

Hourly Weather History & Observations

Time (CST) Temp. Windchill Dew Point Humidity Pressure Visibility Wind Dir Wind Speed Gust Speed Precip Events Conditions
12:13 AM 24.8 °F 8.1 °F 19.4 °F 80% 29.45 in 7.0 mi NW 28.8 mph 38.0 mph N/A   Overcast
12:34 AM 19.4 °F 2.1 °F 15.8 °F 86% 29.50 in 10.0 mi NW 24.2 mph 41.4 mph N/A   Overcast
12:54 AM 17.6 °F -0.6 °F 12.2 °F 79% 29.54 in 7.0 mi NNW 25.3 mph 36.8 mph N/A   Overcast
1:13 AM 15.8 °F -3.4 °F 10.4 °F 79% 29.55 in 7.0 mi NNW 26.5 mph 36.8 mph N/A   Overcast
1:34 AM 15.8 °F -4.1 °F 8.6 °F 73% 29.58 in 10.0 mi NW 28.8 mph 38.0 mph N/A   Overcast
1:54 AM 14.0 °F -5.1 °F 8.6 °F 79% 29.61 in 10.0 mi NW 24.2 mph 38.0 mph N/A   Overcast
2:13 AM 12.2 °F -9.6 °F 6.8 °F 79% 29.62 in 10.0 mi NNW 31.1 mph 39.1 mph N/A Snow Light Snow
2:34 AM 12.2 °F -9.6 °F 5.0 °F 73% 29.66 in 10.0 mi NNW 31.1 mph 41.4 mph N/A   Overcast
2:54 AM 10.4 °F -9.9 °F 3.2 °F 73% 29.68 in 10.0 mi NNW 24.2 mph 40.3 mph N/A   Mostly Cloudy
3:13 AM 10.4 °F -11.0 °F 3.2 °F 73% 29.72 in 10.0 mi NNW 27.6 mph 38.0 mph N/A   Scattered Clouds
3:34 AM 10.4 °F -9.1 °F 3.2 °F 73% 29.73 in 10.0 mi NNW 21.9 mph 35.7 mph N/A   Mostly Cloudy
3:53 AM 10.4 °F -9.5 °F 3.2 °F 73% 29.74 in 7.0 mi NNW 23.0 mph 34.5 mph N/A Snow Light Snow
4:14 AM 10.4 °F -10.7 °F 3.2 °F 73% 29.75 in 7.0 mi NNW 26.5 mph 33.4 mph N/A Snow Light Snow
4:34 AM 10.4 °F -10.7 °F 5.0 °F 79% 29.77 in 4.0 mi NNW 26.5 mph 41.4 mph N/A Snow Light Snow
4:53 AM 10.4 °F -13.0 °F 3.2 °F 73% 29.80 in 3.0 mi NNW 34.5 mph 43.7 mph N/A Snow Light Snow
5:14 AM 10.4 °F -10.7 °F 3.2 °F 73% 29.83 in 4.0 mi NNW 26.5 mph 38.0 mph N/A Snow Light Snow
5:34 AM 10.4 °F -10.7 °F 3.2 °F 73% 29.84 in 4.0 mi NNW 26.5 mph 36.8 mph N/A Snow Light Snow
5:53 AM 10.4 °F -9.1 °F 3.2 °F 73% 29.86 in 7.0 mi NNW 21.9 mph 33.4 mph N/A   Overcast
6:14 AM 10.4 °F -10.7 °F 5.0 °F 79% 29.89 in 2.5 mi NNW 26.5 mph 33.4 mph N/A Snow Light Snow
6:34 AM 10.4 °F -11.7 °F 1.4 °F 67% 29.90 in 10.0 mi NNW 29.9 mph 38.0 mph N/A   Scattered Clouds
6:54 AM 8.6 °F -13.1 °F -0.4 °F 67% 29.92 in 10.0 mi NNW 26.5 mph 33.4 mph N/A   Scattered Clouds
7:14 AM 8.6 °F -10.5 °F 1.4 °F 73% 29.93 in 10.0 mi NNW 19.6 mph 29.9 mph N/A   Scattered Clouds
7:34 AM 8.6 °F -11.4 °F 1.4 °F 73% 29.95 in 10.0 mi NNW 21.9 mph 27.6 mph N/A   Clear
7:53 AM 8.6 °F -9.5 °F -0.4 °F 67% 29.96 in 10.0 mi NNW 17.3 mph 23.0 mph N/A   Mostly Cloudy
8:14 AM 8.6 °F -9.5 °F 1.4 °F 73% 29.97 in 10.0 mi North 17.3 mph 25.3 mph N/A   Overcast
8:34 AM 8.6 °F -12.3 °F -0.4 °F 67% 29.97 in 10.0 mi North 24.2 mph 29.9 mph N/A   Overcast
8:53 AM 8.6 °F -8.9 °F 1.4 °F 73% 29.99 in 10.0 mi North 16.1 mph - N/A   Overcast
9:14 AM 8.6 °F -9.5 °F 1.4 °F 73% 29.99 in 10.0 mi North 17.3 mph 20.7 mph N/A   Overcast
9:33 AM 8.6 °F -8.9 °F 1.4 °F 73% 29.99 in 7.0 mi North 16.1 mph - N/A   Overcast
9:54 AM 8.6 °F -8.3 °F 1.4 °F 73% 29.99 in 10.0 mi North 15.0 mph - N/A   Overcast
10:14 AM 8.6 °F -8.3 °F 1.4 °F 73% 30.01 in 10.0 mi North 15.0 mph 19.6 mph N/A   Mostly Cloudy
10:33 AM 8.6 °F -10.0 °F 1.4 °F 73% 30.03 in 10.0 mi North 18.4 mph 21.9 mph N/A   Scattered Clouds
10:54 AM 8.6 °F -11.0 °F 1.4 °F 73% 30.04 in 5.0 mi North 20.7 mph - N/A   Haze
11:14 AM 6.8 °F -13.4 °F -2.2 °F 67% 30.05 in 10.0 mi North 20.7 mph 26.5 mph N/A   Scattered Clouds
11:33 AM 6.8 °F -12.9 °F -4.0 °F 61% 30.04 in 10.0 mi North 19.6 mph - N/A   Clear
11:54 AM 5.0 °F -14.7 °F -4.0 °F 66% 30.06 in 10.0 mi North 18.4 mph - N/A   Clear
12:14 PM 6.8 °F -8.6 °F -4.0 °F 61% 30.08 in 10.0 mi NNW 11.5 mph - N/A   Clear
12:34 PM 6.8 °F -9.3 °F -4.0 °F 61% 30.09 in 10.0 mi NNW 12.7 mph 18.4 mph N/A   Clear
12:53 PM 6.8 °F -8.6 °F -2.2 °F 67% 30.10 in 10.0 mi North 11.5 mph - N/A   Mostly Cloudy
1:14 PM 6.8 °F -10.0 °F -2.2 °F 67% 30.09 in 10.0 mi North 13.8 mph - N/A   Overcast
1:34 PM 6.8 °F -7.8 °F -2.2 °F 67% 30.10 in 7.0 mi North 10.4 mph - N/A   Overcast
1:54 PM 6.8 °F -6.9 °F -0.4 °F 72% 30.11 in 3.0 mi North 9.2 mph - N/A   Haze
2:14 PM 6.8 °F -8.6 °F -0.4 °F 72% 30.12 in 10.0 mi NW 11.5 mph - N/A   Overcast
2:34 PM 6.8 °F -10.0 °F -2.2 °F 67% 30.13 in 10.0 mi NW 13.8 mph 20.7 mph N/A   Mostly Cloudy
2:53 PM 6.8 °F -10.0 °F -2.2 °F 67% 30.14 in 10.0 mi NW 13.8 mph - N/A   Clear
3:14 PM 6.8 °F -8.6 °F -2.2 °F 67% 30.15 in 10.0 mi NW 11.5 mph - N/A   Scattered Clouds
3:34 PM 5.0 °F -12.3 °F -2.2 °F 72% 30.15 in 10.0 mi NNW 13.8 mph - N/A   Clear
3:53 PM 5.0 °F -13.0 °F -4.0 °F 66% 30.16 in 10.0 mi NNW 15.0 mph 18.4 mph N/A   Clear
4:14 PM 3.2 °F -15.3 °F -5.8 °F 66% 30.17 in 10.0 mi NNW 15.0 mph - N/A   Clear
4:34 PM 3.2 °F -15.3 °F -5.8 °F 66% 30.17 in 10.0 mi NNW 15.0 mph 20.7 mph N/A   Clear
4:54 PM 1.4 °F -14.5 °F -5.8 °F 72% 30.18 in 10.0 mi NW 10.4 mph - N/A   Clear
5:14 PM 1.4 °F -15.3 °F -5.8 °F 72% 30.19 in 10.0 mi NW 11.5 mph - N/A   Clear
5:34 PM 1.4 °F -14.5 °F -7.6 °F 66% 30.20 in 10.0 mi NNW 10.4 mph - N/A   Clear
5:54 PM -0.4 °F -17.6 °F -7.6 °F 72% 30.21 in 10.0 mi NW 11.5 mph - N/A   Clear
6:13 PM -0.4 °F -16.7 °F -9.4 °F 66% 30.21 in 10.0 mi NNW 10.4 mph - N/A   Clear
6:34 PM -0.4 °F -17.6 °F -9.4 °F 66% 30.22 in 10.0 mi NNW 11.5 mph - N/A   Clear
6:54 PM -0.4 °F -18.4 °F -9.4 °F 66% 30.23 in 10.0 mi NNW 12.7 mph - N/A   Clear
7:14 PM -0.4 °F -19.9 °F -9.4 °F 66% 30.24 in 10.0 mi NNW 15.0 mph 18.4 mph N/A   Clear
7:33 PM -2.2 °F -18.9 °F -11.2 °F 66% 30.25 in 10.0 mi NNW 10.4 mph 20.7 mph N/A   Clear
7:54 PM -2.2 °F -22.2 °F -11.2 °F 66% 30.25 in 10.0 mi NNW 15.0 mph - N/A   Clear
8:14 PM -2.2 °F -22.2 °F -11.2 °F 66% 30.26 in 10.0 mi NNW 15.0 mph 19.6 mph N/A   Clear
8:33 PM -2.2 °F -20.7 °F -11.2 °F 66% 30.26 in 10.0 mi NNW 12.7 mph 18.4 mph N/A   Clear
8:54 PM -4.0 °F -23.0 °F -11.2 °F 71% 30.26 in 10.0 mi NNW 12.7 mph - N/A   Clear
9:13 PM -4.0 °F -23.7 °F -11.2 °F 71% 30.26 in 10.0 mi NNW 13.8 mph - N/A   Clear
9:34 PM -5.8 °F -24.4 °F -11.2 °F 77% 30.27 in 10.0 mi NW 11.5 mph 16.1 mph N/A   Clear
9:53 PM -5.8 °F -22.4 °F -13.0 °F 71% 30.29 in 10.0 mi NW 9.2 mph - N/A   Clear
10:14 PM -5.8 °F -25.2 °F -14.8 °F 65% 30.29 in 10.0 mi NNW 12.7 mph 18.4 mph N/A   Clear
10:34 PM -5.8 °F -25.2 °F -14.8 °F 65% 30.30 in 10.0 mi NNW 12.7 mph - N/A   Clear
10:53 PM -5.8 °F -25.2 °F -14.8 °F 65% 30.30 in 10.0 mi NW 12.7 mph 17.3 mph N/A   Clear
11:14 PM -5.8 °F -23.4 °F -14.8 °F 65% 30.31 in 10.0 mi NW 10.4 mph - N/A   Clear
11:34 PM -5.8 °F -22.4 °F -16.6 °F 60% 30.31 in 10.0 mi NW 9.2 mph - N/A   Clear
11:54 PM -5.8 °F -23.4 °F -16.6 °F 60% 30.30 in 10.0 mi NW 10.4 mph - N/A   Clear